Location: Sweet Grass
(48.9965°N, 111.9649°W)
Time: 09:14:32
(UTC+00:00)

DIWATA 2B (PO-101) - Pass Details

Date: 02 April 2023
Orbit: 581 x 593 km, 98.0° (Epoch: 02 June)

Event Time Altitude Azimuth Distance (km) Brightness Sun altitude
Exits shadow 09:58:30 27° 339° (NNW) 1,145 ? -27.3°
Drops below altitude 10° 10:00:26 10° 343° (NNW) 1,911 ? -27.1°
Sets 10:02:37 0° 345° (NNW) 2,817 ? -26.9°
